N2ADK Weather Reports


Display with metric or nautical units.
time (UTC)temp
F
wind
direction
speed
MPH
gust
MPH
rain 1hr
in
rain 24hr
in
rain mn
in
humidity
%
barometer
mb
20260901004022 67 0 0.0 0.0 0.00 0.02 0.02 96 1017.7
20260901003523 67 0 0.0 0.0 0.00 0.02 0.02 96 1017.7
20260901003043 67 0 0.0 0.0 0.00 0.02 0.02 96 1017.6
20260901002521 67 0 0.0 0.0 0.00 0.02 0.02 96 1017.7
20260901002024 67 0 0.0 0.0 0.00 0.02 0.02 95 1017.6
20260901001541 67 0 0.0 0.0 0.00 0.02 0.02 95 1017.5
20260901001021 67 0 0.0 0.0 0.00 0.02 0.02 95 1017.5
20260901000520 67 0 0.0 0.0 0.00 0.02 0.02 95 1017.5
20260901000039 67 0 0.0 0.0 0.00 0.02 0.02 95 1017.6
20260831235520 67 0 0.0 0.0 0.00 0.02 0.02 95 1017.6
20260831235020 67 0 0.0 0.0 0.00 0.02 0.02 95 1017.5
20260831234551 67 0 0.0 0.0 0.00 0.02 0.02 95 1017.6
20260831234023 67 0 0.0 0.0 0.00 0.02 0.02 95 1017.6
20260831233523 67 0 0.0 0.0 0.00 0.02 0.02 94 1017.6
20260831233041 67 0 0.0 0.0 0.00 0.02 0.02 94 1017.7
20260831232520 68 0 0.0 0.0 0.00 0.02 0.02 94 1017.8
20260831232018 68 0 0.0 0.0 0.00 0.02 0.02 94 1017.8
20260831231542 68 0 0.0 0.0 0.00 0.02 0.02 94 1017.9
20260831231020 68 0 0.0 0.0 0.00 0.02 0.02 94 1017.9
20260831230522 68 0 0.0 0.0 0.00 0.02 0.02 94 1018.0
20260831230044 68 0 0.0 0.0 0.00 0.02 0.02 94 1017.9
20260831225521 68 0 0.0 0.0 0.00 0.02 0.02 94 1017.8
20260831225022 68 0 0.0 0.0 0.00 0.02 0.02 94 1017.9
20260831224543 68 0 0.0 0.0 0.00 0.02 0.02 94 1017.8
20260831224021 68 0 0.0 0.0 0.00 0.02 0.02 94 1018.0
20260831223520 68 0 0.0 0.0 0.00 0.02 0.02 94 1018.0
20260831223044 68 0 0.0 0.0 0.00 0.02 0.02 94 1018.0
20260831222518 68 0 0.0 0.0 0.00 0.02 0.02 94 1018.0
20260831222024 68 0 0.0 0.0 0.00 0.02 0.02 94 1018.0
20260831221541 68 0 0.0 0.0 0.00 0.02 0.02 94 1018.1
20260831221022 68 0 0.0 0.0 0.00 0.02 0.02 94 1018.1
20260831220521 68 0 0.0 0.0 0.00 0.02 0.02 93 1018.1
20260831220040 68 0 0.0 0.0 0.00 0.02 0.02 93 1018.3
20260831215521 68 0 0.0 0.0 0.00 0.03 0.02 93 1018.5
20260831215025 68 0 0.0 0.0 0.00 0.03 0.02 93 1018.4
20260831214541 68 0 0.0 0.0 0.00 0.03 0.02 93 1018.4
20260831214021 68 0 0.0 1.0 0.00 0.03 0.02 93 1018.4
20260831213522 68 0 0.0 3.0 0.00 0.03 0.02 92 1018.4
20260831213045 68 0 0.0 3.0 0.00 0.03 0.02 92 1018.4
20260831212523 68 65 0.0 3.0 0.00 0.03 0.02 92 1018.4
20260831212024 68 52 0.0 1.0 0.00 0.03 0.02 93 1018.5
20260831211542 68 0 0.0 1.0 0.00 0.03 0.02 93 1018.6
20260831211022 68 0 0.0 0.0 0.00 0.03 0.02 94 1018.7
20260831210521 68 0 0.0 0.0 0.00 0.03 0.02 93 1018.7
20260831210041 68 0 0.0 0.0 0.00 0.03 0.02 93 1018.6
20260831205520 68 0 0.0 0.0 0.00 0.03 0.02 93 1018.8
20260831205021 68 0 0.0 0.0 0.00 0.03 0.02 93 1018.7
20260831204549 68 0 0.0 0.0 0.00 0.03 0.02 93 1018.7
20260831204020 68 0 0.0 0.0 0.00 0.03 0.02 93 1018.8
20260831203520 68 0 0.0 0.0 0.00 0.03 0.02 93 1018.8
20260831203059 68 0 0.0 0.0 0.00 0.03 0.02 93 1018.7
20260831202523 68 0 0.0 0.0 0.00 0.03 0.02 92 1018.8
20260831202021 68 0 0.0 0.0 0.00 0.03 0.02 92 1018.7
20260831201545 68 0 0.0 0.0 0.00 0.03 0.02 92 1018.7
20260831201025 68 0 0.0 0.0 0.00 0.03 0.02 92 1018.8
20260831200522 68 0 0.0 0.0 0.00 0.03 0.02 92 1018.7
20260831200122 68 0 0.0 1.0 0.00 0.03 0.02 92 1018.8
20260831195523 68 0 0.0 1.0 0.00 0.03 0.02 92 1018.9
20260831195020 68 0 0.0 1.0 0.00 0.03 0.02 92 1019.1
20260831194541 68 0 0.0 1.0 0.00 0.03 0.02 93 1019.0
20260831194018 68 0 0.0 1.0 0.00 0.03 0.02 92 1019.2
20260831193522 68 358 0.0 1.0 0.00 0.03 0.02 93 1019.2
20260831193041 68 0 0.0 0.0 0.00 0.03 0.02 93 1019.2
20260831192521 68 0 0.0 0.0 0.00 0.03 0.02 93 1019.3
20260831192020 68 0 0.0 0.0 0.00 0.03 0.02 93 1019.6
20260831191546 68 0 0.0 0.0 0.00 0.03 0.02 94 1019.5
20260831191022 68 0 0.0 0.0 0.00 0.03 0.02 94 1019.6
20260831190521 68 0 0.0 0.0 0.00 0.03 0.02 94 1019.5
20260831190043 68 0 0.0 0.0 0.00 0.03 0.02 94 1019.6
20260831185521 68 0 0.0 0.0 0.00 0.03 0.02 94 1019.6
20260831185023 68 0 0.0 0.0 0.00 0.03 0.02 94 1019.6
20260831184546 68 0 0.0 0.0 0.00 0.03 0.02 95 1019.6
20260831184022 68 0 0.0 0.0 0.00 0.03 0.02 94 1019.7
20260831183524 68 0 0.0 0.0 0.01 0.03 0.02 94 1019.8
20260831183041 67 0 0.0 0.0 0.01 0.03 0.02 94 1019.9
20260831182525 67 0 0.0 0.0 0.01 0.03 0.02 94 1020.0
20260831182020 67 0 0.0 0.0 0.01 0.03 0.02 94 1020.0
20260831181550 67 0 0.0 0.0 0.01 0.03 0.02 94 1020.0
20260831181020 67 0 0.0 1.0 0.01 0.03 0.02 93 1020.1
20260831180524 67 0 0.0 1.0 0.01 0.03 0.02 93 1020.2
20260831180041 67 0 0.0 0.0 0.01 0.03 0.02 93 1020.3
20260831175521 68 0 0.0 0.0 0.01 0.03 0.02 93 1020.2
20260831175024 68 0 0.0 0.0 0.01 0.03 0.02 92 1020.3
20260831174549 68 0 0.0 0.0 0.01 0.03 0.02 91 1020.3
20260831174021 68 0 0.0 0.0 0.01 0.03 0.02 91 1020.3
20260831173521 68 0 0.0 0.0 0.00 0.02 0.01 90 1020.4
20260831173040 68 0 0.0 2.0 0.00 0.02 0.01 89 1020.4
20260831172518 68 0 0.0 2.0 0.00 0.02 0.01 88 1020.3
20260831172020 68 0 0.0 2.0 0.00 0.02 0.01 87 1020.4
20260831171552 69 0 0.0 1.0 0.00 0.02 0.01 88 1020.6
20260831171023 69 0 0.0 1.0 0.00 0.02 0.01 88 1020.6
20260831170526 69 0 0.0 1.0 0.00 0.02 0.01 87 1020.6
20260831170043 69 0 0.0 1.0 0.00 0.02 0.01 87 1020.5
20260831165521 69 0 0.0 1.0 0.00 0.02 0.01 87 1020.5
20260831165020 69 0 0.0 3.0 0.00 0.02 0.01 87 1020.5
20260831164541 70 0 0.0 3.0 0.00 0.02 0.01 86 1020.7
20260831164018 70 0 0.0 2.0 0.00 0.02 0.01 86 1020.7
20260831163518 71 0 0.0 2.0 0.00 0.02 0.01 87 1020.6
20260831163043 71 8 0.0 2.0 0.00 0.02 0.01 87 1020.6
20260831162525 71 8 0.0 2.0 0.00 0.02 0.01 87 1020.7
20260831162024 71 9 0.0 2.0 0.00 0.02 0.01 87 1020.8
20260831161543 71 0 0.0 2.0 0.00 0.02 0.01 88 1020.6
20260831161021 71 15 0.0 2.0 0.00 0.02 0.01 89 1020.7
20260831160520 71 0 0.0 2.0 0.00 0.02 0.01 88 1020.7
20260831160043 71 0 0.0 2.0 0.00 0.02 0.01 88 1020.7
20260831155520 71 302 0.0 1.0 0.00 0.02 0.01 89 1020.7
20260831155021 71 0 0.0 1.0 0.00 0.02 0.01 88 1020.6
20260831154610 71 0 0.0 1.0 0.00 0.02 0.01 86 1020.7
20260831154024 71 0 0.0 3.0 0.00 0.02 0.01 86 1020.8
20260831153525 71 0 0.0 3.0 0.00 0.02 0.01 84 1020.7
20260831153043 72 0 0.0 3.0 0.00 0.02 0.01 82 1020.7
20260831152522 72 250 0.0 3.0 0.00 0.02 0.01 81 1020.7
20260831152022 72 0 0.0 2.0 0.00 0.02 0.01 83 1020.7
20260831151544 72 0 0.0 4.0 0.00 0.02 0.01 83 1020.5
20260831151021 72 0 0.0 4.0 0.00 0.02 0.01 86 1020.5
20260831150521 72 0 0.0 4.0 0.00 0.02 0.01 85 1020.5
20260831150041 71 278 1.0 4.0 0.00 0.02 0.01 85 1020.5
20260831145520 71 55 0.0 4.0 0.00 0.02 0.01 88 1020.5
20260831145020 70 0 0.0 2.0 0.00 0.02 0.01 90 1020.5
20260831144537 70 0 0.0 3.0 0.00 0.02 0.01 90 1020.5
20260831144019 69 53 0.0 3.0 0.00 0.02 0.01 89 1020.7
20260831143524 69 0 0.0 3.0 0.00 0.02 0.01 89 1020.8
20260831143042 69 0 0.0 2.0 0.00 0.02 0.01 89 1020.7
20260831142522 69 0 0.0 2.0 0.00 0.02 0.01 89 1020.8
20260831142024 69 0 0.0 2.0 0.00 0.02 0.01 90 1020.6
20260831141542 69 0 0.0 2.0 0.00 0.02 0.01 89 1020.6
20260831141021 69 0 0.0 1.0 0.00 0.02 0.01 92 1020.6
20260831140521 68 0 0.0 0.0 0.00 0.02 0.01 92 1020.5
20260831140040 68 0 0.0 0.0 0.00 0.02 0.01 92 1020.5
20260831135522 68 0 0.0 0.0 0.00 0.02 0.01 92 1020.8
20260831135020 68 0 0.0 0.0 0.00 0.02 0.01 93 1020.7
20260831134547 68 0 0.0 2.0 0.00 0.02 0.01 94 1020.6
20260831134020 67 0 0.0 2.0 0.00 0.02 0.01 93 1020.5
20260831133517 67 0 0.0 2.0 0.00 0.02 0.01 95 1020.5
20260831133045 66 0 0.0 2.0 0.00 0.02 0.01 95 1020.7
20260831132526 66 0 0.0 2.0 0.00 0.02 0.01 95 1020.4
20260831132026 66 0 0.0 2.0 0.00 0.02 0.01 95 1020.4
20260831131541 66 0 0.0 0.0 0.00 0.02 0.01 96 1020.6
20260831131017 66 0 0.0 0.0 0.00 0.02 0.01 97 1020.6
20260831130521 65 0 0.0 2.0 0.00 0.02 0.01 97 1020.7
20260831130042 65 0 0.0 2.0 0.00 0.02 0.01 97 1020.7
20260831125520 65 0 0.0 2.0 0.00 0.02 0.01 98 1020.7
20260831125021 64 0 0.0 0.0 0.00 0.02 0.01 98 1020.8
20260831124540 64 0 0.0 0.0 0.00 0.02 0.01 98 1020.9
20260831124016 64 0 0.0 0.0 0.00 0.02 0.01 98 1020.9
20260831123525 64 0 0.0 0.0 0.00 0.02 0.01 98 1021.1
20260831123041 63 0 0.0 0.0 0.00 0.02 0.01 98 1021.1
20260831122524 63 0 0.0 0.0 0.00 0.02 0.01 98 1020.8
20260831122021 63 0 0.0 0.0 0.00 0.02 0.01 98 1020.9
20260831121542 63 0 0.0 0.0 0.00 0.02 0.01 98 1020.9
20260831121018 63 0 0.0 0.0 0.00 0.02 0.01 98 1020.9
20260831120519 62 0 0.0 0.0 0.00 0.02 0.01 98 1021.0
20260831120059 62 0 0.0 0.0 0.00 0.02 0.01 98 1021.1
20260831115518 62 0 0.0 0.0 0.00 0.02 0.01 98 1021.0
20260831115025 62 0 0.0 1.0 0.00 0.02 0.01 98 1020.9
20260831114544 62 0 0.0 1.0 0.00 0.02 0.01 98 1020.9
20260831114021 62 0 0.0 0.0 0.00 0.02 0.01 98 1021.0
20260831113524 62 0 0.0 0.0 0.00 0.02 0.01 98 1020.9
20260831113049 62 0 0.0 0.0 0.00 0.02 0.01 98 1021.0
20260831112518 62 0 0.0 0.0 0.00 0.02 0.01 98 1020.9
20260831112021 61 0 0.0 0.0 0.00 0.02 0.01 98 1020.9
20260831111541 61 0 0.0 0.0 0.00 0.02 0.01 98 1021.1
20260831111019 61 0 0.0 0.0 0.00 0.02 0.01 98 1021.0
20260831110521 61 0 0.0 0.0 0.00 0.02 0.01 98 1020.8
20260831110039 61 0 0.0 0.0 0.00 0.02 0.01 98 1020.8
20260831105525 61 0 0.0 0.0 0.00 0.02 0.01 98 1020.7
20260831105021 61 0 0.0 0.0 0.00 0.02 0.01 98 1020.6
20260831104540 61 0 0.0 0.0 0.00 0.02 0.01 98 1020.7
20260831104023 61 0 0.0 0.0 0.00 0.02 0.01 98 1020.7
20260831103524 61 0 0.0 0.0 0.00 0.02 0.01 98 1020.6
20260831103041 61 0 0.0 0.0 0.00 0.02 0.01 98 1020.5
20260831102524 61 0 0.0 0.0 0.00 0.02 0.01 98 1020.5
20260831102021 61 0 0.0 0.0 0.00 0.02 0.01 98 1020.4
20260831101543 61 0 0.0 0.0 0.00 0.02 0.01 98 1020.5
20260831101021 61 0 0.0 0.0 0.00 0.02 0.01 98 1020.5
20260831100520 61 0 0.0 0.0 0.00 0.02 0.01 98 1020.4
20260831100038 61 0 0.0 0.0 0.00 0.02 0.01 98 1020.5
20260831095520 61 0 0.0 0.0 0.00 0.02 0.01 98 1020.3
20260831095020 61 0 0.0 0.0 0.00 0.02 0.01 98 1020.5
20260831094538 61 0 0.0 0.0 0.00 0.02 0.01 98 1020.3
20260831094024 61 0 0.0 0.0 0.00 0.02 0.01 98 1020.5
20260831093520 61 0 0.0 0.0 0.00 0.02 0.01 98 1020.5
20260831093046 61 0 0.0 0.0 0.00 0.02 0.01 98 1020.3
20260831092524 61 0 0.0 0.0 0.00 0.02 0.01 98 1020.3
20260831092017 61 0 0.0 0.0 0.00 0.02 0.01 98 1020.3
20260831091541 60 0 0.0 0.0 0.00 0.02 0.01 98 1020.4
20260831091020 60 0 0.0 0.0 0.00 0.02 0.01 98 1020.3
20260831090520 60 0 0.0 0.0 0.00 0.02 0.01 98 1020.1
20260831090054 60 0 0.0 0.0 0.00 0.02 0.01 98 1020.2
20260831085521 60 0 0.0 0.0 0.00 0.02 0.01 98 1020.3
20260831085021 60 0 0.0 0.0 0.00 0.02 0.01 98 1020.4
20260831084551 60 0 0.0 0.0 0.00 0.02 0.01 98 1020.5
20260831084020 60 0 0.0 0.0 0.00 0.02 0.01 98 1020.3
20260831083520 60 0 0.0 0.0 0.00 0.02 0.01 98 1020.3
20260831083039 60 0 0.0 0.0 0.00 0.02 0.01 98 1020.4
20260831082524 60 0 0.0 0.0 0.00 0.02 0.01 98 1020.6
20260831082021 60 0 0.0 0.0 0.00 0.02 0.01 98 1020.5
20260831081542 60 0 0.0 0.0 0.00 0.02 0.01 98 1020.4
20260831081021 60 0 0.0 0.0 0.00 0.02 0.01 98 1020.4
20260831080522 60 0 0.0 0.0 0.00 0.02 0.01 98 1020.3
20260831080042 60 0 0.0 0.0 0.00 0.02 0.01 98 1020.2
20260831075520 60 0 0.0 0.0 0.00 0.02 0.01 98 1020.1
20260831075020 60 0 0.0 0.0 0.00 0.02 0.01 98 1020.2
20260831074545 61 0 0.0 0.0 0.00 0.02 0.01 98 1020.1
20260831074022 61 0 0.0 0.0 0.00 0.02 0.01 98 1020.1
20260831073522 61 0 0.0 0.0 0.00 0.02 0.01 98 1020.2
20260831073042 61 0 0.0 0.0 0.00 0.02 0.01 97 1020.2
20260831072522 61 0 0.0 0.0 0.00 0.02 0.01 97 1020.2
20260831072022 61 0 0.0 0.0 0.00 0.02 0.01 97 1020.2
20260831071541 61 0 0.0 0.0 0.00 0.02 0.01 98 1020.3
20260831071018 61 0 0.0 0.0 0.00 0.02 0.01 98 1020.3
20260831070519 61 0 0.0 0.0 0.00 0.02 0.01 98 1020.2
20260831070049 61 0 0.0 0.0 0.01 0.02 0.01 98 1020.3
20260831065518 61 0 0.0 0.0 0.01 0.02 0.01 98 1020.5
20260831065019 61 0 0.0 0.0 0.01 0.02 0.01 98 1020.5
20260831064541 61 0 0.0 0.0 0.01 0.02 0.01 98 1020.5
20260831064021 61 0 0.0 0.0 0.01 0.02 0.01 97 1020.4
20260831063521 62 0 0.0 1.0 0.01 0.02 0.01 98 1020.2
20260831063047 62 0 0.0 1.0 0.01 0.02 0.01 98 1020.3
20260831062521 62 0 0.0 0.0 0.01 0.02 0.01 98 1020.3
20260831062021 62 0 0.0 0.0 0.01 0.02 0.01 98 1020.6
20260831061542 62 0 0.0 0.0 0.01 0.02 0.01 98 1020.6
20260831061021 62 0 0.0 0.0 0.01 0.02 0.01 98 1020.7
20260831060517 62 0 0.0 0.0 0.01 0.02 0.01 98 1020.7
20260831060050 62 0 0.0 0.0 0.00 0.01 0.00 98 1020.7
20260831055522 62 0 0.0 0.0 0.00 0.01 0.00 98 1020.7
20260831055017 62 0 0.0 0.0 0.00 0.01 0.00 98 1020.7
20260831054545 62 0 0.0 1.0 0.00 0.01 0.00 98 1020.7
20260831054027 62 0 0.0 1.0 0.00 0.01 0.00 98 1020.8
20260831053520 62 0 0.0 0.0 0.00 0.01 0.00 98 1020.7
20260831053058 62 0 0.0 0.0 0.00 0.01 0.00 98 1020.8
20260831052524 61 0 0.0 0.0 0.00 0.01 0.00 98 1020.8
20260831052019 61 0 0.0 0.0 0.00 0.01 0.00 98 1021.0
20260831051544 61 0 0.0 0.0 0.00 0.01 0.00 98 1020.9
20260831051022 61 0 0.0 0.0 0.00 0.01 0.00 98 1020.9
20260831050519 61 0 0.0 0.0 0.00 0.01 0.00 98 1021.0
20260831050046 61 0 0.0 0.0 0.00 0.01 0.00 98 1021.0
20260831045525 61 0 0.0 0.0 0.00 0.01 0.00 98 1021.0
20260831045022 61 0 0.0 0.0 0.00 0.01 0.00 98 1020.9
20260831044542 61 0 0.0 0.0 0.00 0.01 0.00 97 1020.8
20260831044020 61 0 0.0 0.0 0.00 0.01 0.00 97 1020.9
20260831043517 61 0 0.0 0.0 0.00 0.01 0.00 97 1021.1
20260831043041 61 0 0.0 0.0 0.00 0.01 0.00 97 1020.9
20260831042522 62 0 0.0 0.0 0.00 0.01 0.00 97 1021.1
20260831042021 62 0 0.0 0.0 0.00 0.01 0.00 98 1021.0
20260831041542 62 0 0.0 1.0 0.00 0.01 0.00 97 1021.2
20260831041018 62 0 0.0 1.0 0.00 0.01 0.00 97 1021.1
20260831040521 62 0 0.0 1.0 0.00 0.01 0.00 97 1021.1
20260831040040 62 0 0.0 0.0 0.00 0.01 0.00 99 1020.9
20260831035521 62 0 0.0 0.0 0.00 0.01 0.01 97 1020.9
20260831035021 63 0 0.0 0.0 0.00 0.01 0.01 97 1020.9
20260831034547 63 0 0.0 0.0 0.00 0.01 0.01 97 1020.9
20260831034018 63 0 0.0 2.0 0.00 0.01 0.01 97 1020.9
20260831033521 63 0 0.0 2.0 0.00 0.01 0.01 97 1021.0
20260831033101 63 347 0.0 2.0 0.00 0.01 0.01 97 1020.9
20260831032520 63 0 0.0 2.0 0.00 0.01 0.01 97 1020.9
20260831032021 63 0 0.0 1.0 0.00 0.01 0.01 97 1020.8
20260831031540 63 0 0.0 1.0 0.00 0.01 0.01 97 1020.8
20260831031027 63 0 0.0 0.0 0.00 0.01 0.01 97 1020.7
20260831030521 63 0 0.0 0.0 0.00 0.01 0.01 97 1020.9
20260831030041 64 0 0.0 0.0 0.00 0.01 0.01 97 1020.8
20260831025521 64 0 0.0 0.0 0.00 0.01 0.01 97 1020.8
20260831025020 64 0 0.0 0.0 0.00 0.01 0.01 97 1020.8
20260831024541 64 0 0.0 0.0 0.00 0.01 0.01 97 1020.8
20260831024021 64 0 0.0 0.0 0.00 0.01 0.01 97 1020.8
20260831023520 64 0 0.0 0.0 0.00 0.01 0.01 97 1020.8
20260831023041 64 0 0.0 2.0 0.00 0.01 0.01 97 1020.6
20260831022520 64 0 0.0 2.0 0.00 0.01 0.01 97 1020.7
20260831022024 64 0 0.0 0.0 0.00 0.01 0.01 97 1020.7
20260831021543 64 0 0.0 0.0 0.00 0.01 0.01 97 1020.6
20260831021027 64 0 0.0 0.0 0.00 0.01 0.01 97 1020.6
20260831020527 64 0 0.0 0.0 0.00 0.01 0.01 97 1020.5
20260831020059 64 0 0.0 0.0 0.00 0.01 0.01 97 1020.5
20260831015519 64 0 0.0 0.0 0.00 0.01 0.01 97 1020.5
20260831015019 64 0 0.0 0.0 0.00 0.01 0.01 97 1020.5
20260831014542 65 0 0.0 0.0 0.00 0.01 0.01 97 1020.5
20260831014020 65 0 0.0 0.0 0.00 0.01 0.01 97 1020.6
20260831013520 65 0 0.0 0.0 0.00 0.01 0.01 97 1020.6
20260831013042 65 0 0.0 0.0 0.00 0.01 0.01 97 1020.7
20260831012518 65 0 0.0 0.0 0.00 0.01 0.01 97 1020.8
20260831012018 65 0 0.0 0.0 0.00 0.01 0.01 97 1020.8
20260831011544 65 0 0.0 0.0 0.00 0.01 0.01 97 1020.7
20260831011019 65 0 0.0 0.0 0.00 0.01 0.01 97 1020.7
20260831010519 65 0 0.0 1.0 0.00 0.01 0.01 97 1020.6
20260831010044 65 0 0.0 1.0 0.00 0.01 0.01 97 1020.6
20260831005521 65 347 0.0 0.0 0.00 0.01 0.01 97 1020.5
20260831005022 65 0 0.0 0.0 0.00 0.01 0.01 97 1020.5
20260831004542 65 0 0.0 0.0 0.00 0.01 0.01 97 1020.5